Airfield :
LOGIN :

Register | Disclaimer

   EN    FR    IT 

 










Legend :    VFR   Marginal VFR   IFR   Intensive IFR   Very Intensive IFR
Visi :
Ceiling :
>= 8 km
>= 3000ft
5 to 8 km
1000 to 3000 ft
1500m to 5 km
500 to 1000 ft
800 to 1500m
200 to 500 ft
< 800m
< 200 ft
Symbols :   Thunderstorms  Fog  Heavy snow  Heavy precipitations  Wind > 20 kt
SIGMETs :     Misc.  Thunderstorms  Icing  Turbulence  Mountain Waves  Volcanic Ashes






- Airport Elevation : 13 ft
- IATA code : CAG


LIEE - Cagliari Elmas

CURRENT METAR :
  • 191020Z 35009KT 310V030 CAVOK 29/17 Q1016

EXPIRED METARs :
  • 190950Z 36010KT 310V020 CAVOK 28/18 Q1016
  • 190920Z 33008KT 290V360 CAVOK 28/18 Q1016
  • 190850Z 33007KT 300V360 CAVOK 27/18 Q1016
  • 190820Z 32007KT CAVOK 25/18 Q1015
  • 190750Z 33008KT CAVOK 23/18 Q1015

TAF TAF LIEE
Valid from the 19 at 06:00 until the 20 at 06:00 UTC


190500Z 1906/2006 VRB06KT 9999 SCT040
BECMG 1908/1910 33016G26KT



MET'MAP, your aeronautical weather chart ! - Copyright ORBIFLY December 2007 - Disclaimer

ORBIFLY MET'MAP TEAM :

Programming & Development : Alexandra Zaïnal
Concept & original design : Baudouin d'Aumeries
Assistance for programming : Marc-Olivier Méhu
Technical & hardware support : Manuel Goepfert

Contact : metmap@orbifly.com




SOURCES & CREDITS :

   NOAA